STARLINK-1600 (46161 NORAD) Tracking and Keplerian Element Data

This shows tracking and keplerian element data for the satellite.

Feedback or suggestion? Click here.




ElementValue
Catalog46161
NameSTARLINK-1600
Epoch Orbit184
Epoch Day336.91667824
Epoch Year2020
RAAN292.759
Inclination53.0009
Eccentricity0.0001574
Argument of Perigee67.9705
Mean Anonmoly316.9034
Mean Motion15.05582213
Decay Rate7.273E-05
L11 46161U 20057AW 20336.91667824 .00007273 00000-0 51776-3 0 9997
L22 46161 53.0009 292.7590 0001574 67.9705 316.9034 15.05582213 1843

Live tracking and technical data element details for STARLINK-1600 (NORAD 46161). STARLINK-1600 can be tracked NOW for your location showing map with azimuth and elevation plus other details from your city location.

Track the satellite on the map from your city or location and see movement details for azimuth, elevation, latitude, longitude, range, height, and movement on the map or in text.







IsCatalogInMostPopularTable: catalog: 46161, numindb: 17
Update: records affected: 1



GetName: 46161 STARLINK-1600

Hit Count: updated at: Thu, 03 Dec 2020 06:39:16 GMT